Weather in Itlar

Russia / Yaroslavl Oblast     56°51′34″N   39°17′17″E
temp.,
°C
wind,
m/s
gust,
m/s
humid.,
%
clouds,
%
prec.,
mm/h
press.,
hPa
HPBL,
m
23 october, sat
sat2300:00+5wsw815719 0.0 1000953
03:00+5wsw71373100 0.0 1001992
06:00+4sw61377100 0.0 1001929
09:00+6sw6127274 0.0 1001920
12:00+6sw71171100 0.0 10031033
15:00+6sw7117498 0.1 10031140
18:00+4wsw81579100 0.1 1005832
21:00+3sw5128382 0.1 1006468
24 october, sun
sun2400:00+2wsw410905 0.0 1007321
03:00+4wsw5880100 0.0 1007766
06:00+3sw4785100 0.0 1007421
09:00+3w3697100 0.8 1008641
12:00+3w4897100 0.6 1009595
15:00+1nw71296100 1.5 1011631
18:000nnw81396100 0.6 1015915
21:000nnw7137526 0.7 1018969
25 october, mon
mon2500:00−1nnw612825 0.0 1021611
03:00−2nnw510845 0.0 1023461
06:00−2nw49915 0.0 1026317
09:00−1nw36865 0.0 1027286
12:00+2w3463100 0.0 1028676
15:00+2wsw4664100 0.0 1027753
18:00+1sw5117178 0.0 1026463
21:00+1sw6136893 0.0 1025455
26 october, tue
tue2600:00+2sw6137386 0.0 1024489
03:00+1sw6138053 0.0 1023454
06:000wsw61385100 0.0 1022388
09:00+1wsw61478100 0.0 1021469
12:00+4wsw61468100 0.0 1020610
15:00+5wsw61368100 0.0 1019643
18:00+3wsw61373100 0.0 1019494
21:00+2wsw51376100 0.0 1018437
27 october, wed
wed2700:00+2sw5128094 0.0 1018377
03:00+1sw51283100 0.0 1017352
06:00+1sw51284100 0.0 1015352
09:00+2sw61380100 0.0 1014448
12:00+5wsw61172100 0.0 1013630
15:00+4wsw51082100 0.0 1012546
18:00+3wsw4991100 0.2 1013369
21:00+4wsw51094100 0.2 1013392